Mt Hood
Mt. Hood Meadows - Cascade Express
Latest observation 09/03 17:00 PDT
| Time (PDT) | Temp °F 7300' | RH % 7300' | Min mph 7300' | Spd mph 7300' | Gust mph 7300' | Dir ° 7300' |
|---|---|---|---|---|---|---|
| 09/03 17:00 | 22 | 100 | 0 | 5 | 15 | 208 |
| 09/03 16:00 | 21 | 100 | 0 | 4 | 17 | 200 |
| 09/03 15:00 | 21 | 100 | 0 | 3 | 15 | 194 |
| 09/03 14:00 | 21 | 100 | 0 | 5 | 19 | 172 |
| 09/03 13:00 | 30 | 100 | 0 | 7 | 28 | 188 |
| 09/03 12:00 | 32 | 100 | 0 | 8 | 25 | 209 |
| 09/03 11:00 | 31 | 100 | 0 | 9 | 24 | 210 |
| 09/03 10:00 | 31 | 100 | 0 | 10 | 25 | 218 |
| 09/03 09:00 | 30 | 100 | 0 | 10 | 29 | 205 |
| 09/03 08:00 | 30 | 100 | 0 | 10 | 26 | 205 |
| 09/03 07:00 | 30 | 100 | 0 | 8 | 26 | 207 |
| 09/03 06:00 | 30 | 100 | 0 | 12 | 36 | 214 |
| 09/03 05:00 | 29 | 100 | 0 | 13 | 35 | 220 |
| 09/03 04:00 | 30 | 100 | 0 | 14 | 40 | 224 |
| 09/03 03:00 | 29 | 100 | 0 | 13 | 38 | 214 |
| 09/03 02:00 | 30 | 100 | 0 | 14 | 39 | 213 |
| 09/03 01:00 | 30 | 100 | 0 | 15 | 46 | 222 |
| 09/03 00:00 | 29 | 94 | 0 | 19 | 44 | 232 |
| 09/02 23:00 | 30 | 100 | 0 | 16 | 47 | 218 |
| 09/02 22:00 | 31 | 100 | 0 | 16 | 46 | 218 |
| 09/02 21:00 | 33 | 100 | 0 | 17 | 45 | 221 |
| 09/02 20:00 | 33 | 100 | 0 | 13 | 40 | 229 |
| 09/02 19:00 | 37 | 100 | 0 | 12 | 34 | 184 |
| 09/02 18:00 | 37 | 100 | 0 | 16 | 44 | 188 |
| 09/02 17:00 | 37 | 100 | 0 | 16 | 42 | 190 |
| 09/02 16:00 | 37 | 100 | 0 | 17 | 42 | 188 |
| 09/02 15:00 | 36 | 100 | 0 | 16 | 40 | 177 |
| 09/02 14:00 | 35 | 100 | 0 | 13 | 36 | 180 |
| 09/02 13:00 | 35 | 100 | 0 | 11 | 38 | 178 |
| 09/02 12:00 | 35 | 100 | 0 | 10 | 35 | 175 |
| 09/02 11:00 | 35 | 100 | 0 | 12 | 38 | 173 |
| 09/02 10:00 | 36 | 100 | 0 | 14 | 39 | 172 |
| 09/02 09:00 | 35 | 100 | 0 | 12 | 37 | 181 |
| 09/02 08:00 | 35 | 100 | 0 | 10 | 31 | 193 |
| 09/02 07:00 | 35 | 100 | 0 | 11 | 28 | 204 |
| 09/02 06:00 | 35 | 100 | 0 | 12 | 38 | 208 |
| 09/02 05:00 | 35 | 96 | 0 | 13 | 36 | 218 |
| 09/02 04:00 | 35 | 99 | 0 | 14 | 37 | 221 |
| 09/02 03:00 | 35 | 100 | 0 | 13 | 36 | 224 |
| 09/02 02:00 | 36 | 91 | 0 | 17 | 41 | 237 |
| 09/02 01:00 | 38 | 84 | 0 | 17 | 43 | 231 |
| 09/02 00:00 | 36 | 86 | 0 | 15 | 40 | 234 |
| 09/01 23:00 | 41 | 45 | 0 | 14 | 41 | 227 |
| 09/01 22:00 | 43 | 51 | 0 | 15 | 41 | 224 |
| 09/01 21:00 | 42 | 59 | 0 | 16 | 42 | 223 |
| 09/01 20:00 | 44 | 63 | 0 | 14 | 39 | 220 |
| 09/01 19:00 | 43 | 66 | 0 | 15 | 39 | 219 |
| 09/01 18:00 | 46 | 51 | 0 | 13 | 39 | 219 |
| 09/01 17:00 | 48 | 53 | 0 | 14 | 33 | 216 |
| 09/01 16:00 | 51 | 48 | 0 | 12 | 33 | 215 |
| 09/01 15:00 | 51 | 51 | 0 | 11 | 28 | 216 |
| 09/01 14:00 | 57 | 43 | 0 | 8 | 24 | 200 |
| 09/01 13:00 | 58 | 29 | 0 | 7 | 22 | 210 |
| 09/01 12:00 | 61 | 33 | 0 | 6 | 19 | 207 |
| 09/01 11:00 | 65 | 25 | 0 | 5 | 15 | 170 |
| 09/01 10:00 | 59 | 30 | 0 | 3 | 10 | 166 |
| 09/01 09:00 | 59 | 28 | 0 | 1 | 6 | 292 |
| 09/01 08:00 | 52 | 28 | 0 | 0 | 0 | 321 |
| 09/01 07:00 | 50 | 29 | 0 | 0 | 3 | 321 |
| 09/01 06:00 | 49 | 31 | 0 | 0 | 0 | 321 |
| 09/01 05:00 | 51 | 27 | 0 | 0 | 4 | 329 |
| 09/01 04:00 | 49 | 22 | 0 | 0 | 0 | 350 |
| 09/01 03:00 | 53 | 23 | 0 | 1 | 7 | 337 |
| 09/01 02:00 | 54 | 24 | 0 | 4 | 13 | 335 |
| 09/01 01:00 | 54 | 23 | 0 | 5 | 17 | 335 |
| 09/01 00:00 | 53 | 37 | 0 | 2 | 14 | 296 |
| 08/31 23:00 | 52 | 49 | 0 | 0 | 3 | 205 |
| 08/31 22:00 | 52 | 49 | 0 | 0 | 2 | 184 |
| 08/31 21:00 | 53 | 45 | 0 | 0 | 1 | 183 |
| 08/31 20:00 | 55 | 44 | 0 | 1 | 7 | 177 |
| 08/31 19:00 | 56 | 41 | 0 | 1 | 9 | 132 |
| 08/31 18:00 | 59 | 39 | 0 | 4 | 14 | 139 |
| 08/31 17:00 | 60 | 32 | 0 | 4 | 20 | 96 |
| 08/31 16:00 | 59 | 30 | 0 | 5 | 19 | 77 |
| 08/31 15:00 | 60 | 29 | 0 | 5 | 17 | 86 |
| 08/31 14:00 | 59 | 27 | 0 | 5 | 16 | 99 |
| 08/31 13:00 | 66 | 19 | 0 | 3 | 16 | 145 |
| 08/31 12:00 | 64 | 19 | 0 | 4 | 14 | 148 |
| 08/31 11:00 | 64 | 17 | 0 | 3 | 15 | 141 |
| 08/31 10:00 | 61 | 21 | 0 | 3 | 17 | 126 |
| 08/31 09:00 | 60 | 21 | 0 | 3 | 19 | 157 |
| 08/31 08:00 | 59 | 23 | 0 | 2 | 13 | 213 |
| 08/31 07:00 | 52 | 31 | 0 | 3 | 12 | 215 |
| 08/31 06:00 | 49 | 33 | 0 | 3 | 16 | 227 |
| 08/31 05:00 | 48 | 37 | 0 | 2 | 8 | 213 |
| 08/31 04:00 | 45 | 45 | 0 | 0 | 4 | 204 |
| 08/31 03:00 | 46 | 46 | 0 | 0 | 2 | 231 |
| 08/31 02:00 | 46 | 57 | 0 | 0 | 0 | 232 |
| 08/31 01:00 | 50 | 45 | 0 | 1 | 7 | 242 |
| 08/31 00:00 | 48 | 56 | 0 | 0 | 1 | 242 |
| 08/30 23:00 | 50 | 54 | 0 | 0 | 0 | 303 |
| 08/30 22:00 | 49 | 57 | 0 | 1 | 8 | 343 |
| 08/30 21:00 | 50 | 56 | 0 | 2 | 10 | 320 |
| 08/30 20:00 | 49 | 59 | 0 | 0 | 4 | 216 |
| 08/30 19:00 | 51 | 58 | 0 | 1 | 7 | 172 |
| 08/30 18:00 | 52 | 56 | 0 | 1 | 8 | 116 |
| 08/30 17:00 | 50 | 59 | 0 | 4 | 13 | 45 |
| 08/30 16:00 | 50 | 58 | 0 | 4 | 16 | 32 |
| 08/30 15:00 | 51 | 54 | 0 | 4 | 18 | 30 |
| 08/30 14:00 | 50 | 54 | 0 | 4 | 17 | 40 |
| 08/30 13:00 | 50 | 57 | 0 | 4 | 16 | 71 |
| 08/30 12:00 | 50 | 57 | 0 | 4 | 16 | 84 |
| 08/30 11:00 | 48 | 49 | 0 | 3 | 14 | 82 |
| 08/30 10:00 | 47 | 43 | 0 | 2 | 12 | 18 |
| 08/30 09:00 | 45 | 39 | 0 | 1 | 6 | 10 |
| 08/30 08:00 | 45 | 33 | 0 | 0 | 3 | 10 |
| 08/30 07:00 | 43 | 29 | 0 | 0 | 0 | 10 |
| 08/30 06:00 | 37 | 37 | 0 | 0 | 2 | 10 |
| 08/30 05:00 | 39 | 33 | 0 | 0 | 1 | 10 |
| 08/30 04:00 | 39 | 33 | 0 | 0 | 3 | 11 |
| 08/30 03:00 | 40 | 34 | 0 | 0 | 7 | 20 |
| 08/30 02:00 | 40 | 32 | 0 | 0 | 2 | 313 |
| 08/30 01:00 | 40 | 35 | 0 | 1 | 8 | 340 |
| 08/30 00:00 | 40 | 39 | 0 | 3 | 21 | 297 |
| 08/29 23:00 | 44 | 25 | 0 | 8 | 23 | 297 |
| 08/29 22:00 | 38 | 61 | 0 | 1 | 14 | 343 |
| 08/29 21:00 | 36 | 79 | 0 | 2 | 21 | 344 |
| 08/29 20:00 | 36 | 67 | 0 | 12 | 33 | 247 |
| 08/29 19:00 | 35 | 93 | 0 | 14 | 34 | 240 |
| 08/29 18:00 | 36 | 85 | 0 | 14 | 40 | 246 |
| 08/29 17:00 | 36 | 85 | 0 | 15 | 36 | 242 |
| 08/29 16:00 | 36 | 88 | 0 | 12 | 37 | 246 |
| 08/29 15:00 | 38 | 70 | 0 | 11 | 33 | 253 |
| 08/29 14:00 | 36 | 84 | 0 | 12 | 34 | 254 |
| 08/29 13:00 | 38 | 72 | 0 | 10 | 34 | 263 |
| 08/29 12:00 | 36 | 89 | 0 | 13 | 38 | 262 |
| 08/29 11:00 | 33 | 100 | 0 | 13 | 35 | 248 |
| 08/29 10:00 | 32 | 98 | 0 | 16 | 44 | 239 |
| 08/29 09:00 | 33 | 100 | 0 | 15 | 38 | 231 |
| 08/29 08:00 | 33 | 100 | 0 | 12 | 37 | 232 |
| 08/29 07:00 | 33 | 98 | 0 | 15 | 38 | 242 |
| 08/29 06:00 | 34 | 81 | 0 | 15 | 44 | 246 |
| 08/29 05:00 | 37 | 50 | 0 | 17 | 41 | 241 |
| 08/29 04:00 | 35 | 82 | 0 | 17 | 40 | 233 |
| 08/29 03:00 | 37 | 70 | 0 | 15 | 38 | 241 |
| 08/29 02:00 | 40 | 51 | 0 | 14 | 37 | 246 |
| 08/29 01:00 | 40 | 59 | 0 | 15 | 37 | 244 |
| 08/29 00:00 | 43 | 36 | 0 | 12 | 37 | 251 |
| 08/28 23:00 | 46 | 19 | 0 | 12 | 35 | 252 |
| 08/28 22:00 | 48 | 24 | 0 | 13 | 33 | 242 |
| 08/28 21:00 | 49 | 25 | 0 | 13 | 33 | 238 |
| 08/28 20:00 | 48 | 30 | 0 | 12 | 30 | 240 |
| 08/28 19:00 | 49 | 25 | 0 | 11 | 31 | 233 |
| 08/28 18:00 | 51 | 19 | 0 | 8 | 26 | 220 |
| 08/28 17:00 | 54 | 25 | 0 | 8 | 23 | 216 |
| 08/28 16:00 | 56 | 9 | 0 | 7 | 21 | 215 |
| 08/28 15:00 | 59 | 19 | 0 | 6 | 18 | 190 |
| 08/28 14:00 | 61 | 25 | 0 | 6 | 20 | 163 |
| 08/28 13:00 | 62 | 27 | 0 | 5 | 21 | 156 |
| 08/28 12:00 | 54 | 42 | 0 | 4 | 15 | 87 |
| 08/28 11:00 | 51 | 58 | 0 | 4 | 19 | 109 |
| 08/28 10:00 | 53 | 43 | 0 | 3 | 12 | 102 |
| 08/28 09:00 | 51 | 42 | 0 | 1 | 7 | 64 |
| 08/28 08:00 | 49 | 38 | 0 | 0 | 3 | 276 |
| 08/28 07:00 | 47 | 36 | 0 | 0 | 4 | 264 |
| 08/28 06:00 | 46 | 29 | 0 | 0 | 0 | 221 |
| 08/28 05:00 | 45 | 32 | 0 | 0 | 1 | 233 |
| 08/28 04:00 | 45 | 31 | 0 | 0 | 1 | 341 |
| 08/28 03:00 | 48 | 23 | 0 | 1 | 8 | 317 |
| 08/28 02:00 | 48 | 22 | 0 | 1 | 8 | 325 |
| 08/28 01:00 | 48 | 22 | 0 | 1 | 8 | 267 |
| 08/28 00:00 | 50 | 9 | 0 | 5 | 21 | 230 |
| 08/27 23:00 | 51 | 4 | 0 | 9 | 27 | 224 |
| 08/27 22:00 | 52 | 3 | 0 | 11 | 31 | 239 |
| 08/27 21:00 | 53 | 3 | 0 | 12 | 33 | 246 |
| 08/27 20:00 | 52 | 6 | 0 | 9 | 37 | 249 |
| 08/27 19:00 | 52 | 18 | 0 | 7 | 26 | 249 |
| 08/27 18:00 | 53 | 20 | 0 | 7 | 26 | 254 |

